Location: Palmerston North
(40.3500°S, 175.6170°E)
Time: 17:35:07
(UTC+13:00)

Cosmos 2322 - Pass Details

Date: 24 January 2019
Orbit: 839 x 856 km, 71.0° (Epoch: 22 October)

Event Time Altitude Azimuth Distance (km) Brightness Sun altitude
Exits shadow 23:25:09 20° 322° (NW) 1,891 5.3 -23.8°
Maximum altitude 23:29:11 65° 245° (WSW) 939 4.0 -24.2°
Drops below altitude 10° 23:34:53 10° 162° (SSE) 2,492 6.7 -24.7°
Sets 23:37:22 0° 159° (SSE) 3,432 7.4 -25.0°
